Helicity
389 287 377 384 290 233 333 285 286 212 261 314 370 309 331 361 337 364 291 150 107 60 116 96 85 89 136 104 127 147 135 175 169 157 121 103 49 37
388 351 381 290 324 250 179 190 258 225 277 300 304 339 499 391 351 310 292 260 108 72 123 131 142 122 113 131 150 164 167 181 165 139 150 96 66 47
316 263 219 290 291 160 249 244 252 303 346 340 296 365 269 296 281 242 225 209 153 97 106 121 127 122 134 136 149 152 178 186 174 149 153 145 82 51
193 154 192 262 146 182 200 266 273 379 384 304 220 229 261 231 188 225 202 119 122 101 120 122 116 108 129 126 166 202 235 185 152 138 143 114 68 52
206 202 164 233 216 186 236 290 448 332 162 209 239 220 215 208 157 130 133 97 100 132 131 101 86 80 66 87 123 194 211 173 202 150 137 107 99 63
200 218 281 175 308 322 276 208 173 123 170 203 136 128 146 140 158 121 108 115 108 102 86 73 56 67 85 87 112 199 205 200 171 142 109 110 121 107
206 138 146 142 111 144 228 191 123 153 179 119 122 142 149 129 125 114 118 143 107 78 108 108 119 108 110 83 144 202 220 230 190 119 97 130 127 116
287 300 231 322 273 301 280 204 178 112 130 141 141 137 142 107 106 109 123 107 77 99 95 88 101 97 103 125 142 183 169 184 169 112 112 121 135 137
311 322 270 301 225 178 210 177 151 144 114 100 136 130 127 132 101 92 98 109 111 114 116 117 109 123 121 115 93 121 140 155 138 96 88 106 115 122
303 251 222 262 218 157 156 167 149 149 141 124 119 110 101 98 89 101 109 133 153 149 159 121 139 160 148 133 93 109 164 147 114 87 89 106 123 142
138 152 171 172 190 178 162 145 134 140 124 114 117 120 123 121 124 156 155 166 155 174 186 198 183 178 170 155 120 130 156 150 130 88 103 116 147 159
146 155 187 159 171 156 114 117 117 111 106 108 118 135 147 153 176 157 189 185 195 175 192 193 199 163 145 163 168 121 171 166 150 153 139 121 107 95
72 85 101 132 124 127 117 101 99 95 101 99 104 106 119 146 178 202 194 214 223 214 228 235 216 207 222 220 153 135 166 165 182 161 119 79 63 96
80 83 88 115 103 94 89 108 112 109 102 104 102 103 112 127 144 161 175 184 195 185 208 252 250 248 249 247 209 152 156 157 161 153 113 62 54 86
89 96 108 126 139 134 155 145 120 90 77 71 64 67 75 87 100 121 144 164 189 205 204 208 243 287 273 273 223 157 152 113 146 146 113 79 74 91
135 133 146 144 142 128 116 127 111 102 94 85 76 84 92 97 108 115 122 141 163 158 170 181 201 228 252 233 200 187 152 110 73 124 105 92 114 144
123 123 119 111 102 94 86 92 105 119 125 118 110 110 122 132 135 127 140 149 167 166 164 166 188 178 163 187 189 178 151 118 101 130 126 91 109 174
107 94 86 80 75 74 70 67 84 115 129 131 139 136 138 153 163 166 159 161 158 148 147 156 171 196 192 134 126 150 147 127 119 117 138 110 99 167
102 79 68 61 61 56 64 73 88 120 142 161 171 177 176 171 172 164 163 153 146 143 139 153 173 170 186 169 107 108 141 149 126 131 120 138 118 173
82 76 77 80 77 76 86 98 138 163 177 175 177 175 180 173 168 159 153 148 143 138 132 140 161 148 137 102 99 97 100 151 144 145 162 172 138 191
88 84 80 84 89 103 121 128 158 178 194 193 187 187 180 179 165 151 140 120 114 130 121 109 140 73 102 138 114 107 117 118 164 166 189 214 202 167
87 85 92 100 103 112 125 152 179 195 191 197 195 193 182 173 161 151 144 136 131 123 101 94 112 114 106 83 69 134 128 156 126 109 106 150 164 160
88 90 99 110 130 149 164 180 185 188 199 199 199 194 191 190 168 154 143 136 121 116 103 100 119 115 84 75 89 141 173 182 196 187 169 147 144 151
Wind_Speed
80 81 82 70 76 74 63 58 57 66 57 48 50 46 37 33 31 36 38 38 37 33 40 38 48 52 55 55 50 52 55 53 49 47 51 50 52 55
75 74 82 80 75 68 62 67 60 60 68 51 48 41 36 34 37 39 41 41 42 44 54 42 40 45 48 50 52 52 51 48 46 46 49 50 54 63
76 81 73 80 72 67 67 63 58 55 63 63 39 41 41 42 41 43 49 52 54 55 54 44 47 48 52 54 50 46 43 36 33 32 42 51 53 60
60 50 74 63 66 73 64 61 59 56 48 51 47 45 45 38 41 44 41 39 51 52 49 49 51 50 49 46 42 37 35 33 33 38 47 45 39 49
58 55 56 60 54 55 47 56 46 43 37 46 52 49 43 43 50 45 47 44 46 57 54 54 51 55 53 47 38 34 34 33 37 41 45 45 45 42
54 56 44 41 35 32 42 34 40 31 37 44 48 47 46 43 47 50 50 54 59 52 53 53 56 63 60 48 34 31 34 36 41 44 45 46 49 53
28 25 25 19 16 31 36 40 49 42 44 40 40 39 38 46 47 46 48 52 55 53 61 61 56 54 51 46 36 32 34 35 39 43 48 52 55 60
28 27 23 26 26 29 33 34 38 41 40 39 38 43 45 44 41 41 46 49 57 45 47 53 44 47 48 45 40 37 36 36 39 43 49 54 56 61
16 19 22 26 26 26 25 24 28 30 31 35 41 42 41 41 47 49 47 47 48 46 44 53 46 53 48 46 42 39 37 37 41 44 46 49 56 61
20 23 20 27 28 25 22 27 31 34 37 38 37 39 45 49 48 49 50 48 47 48 44 58 52 55 49 45 42 39 38 38 41 43 46 49 55 58
22 22 24 24 29 30 29 31 33 36 39 42 45 49 51 53 54 47 50 55 62 57 45 52 55 56 51 48 41 37 36 38 41 46 48 50 52 57
23 26 28 30 33 35 33 35 40 46 50 52 52 53 54 55 56 52 53 58 59 64 52 48 54 53 61 49 46 42 40 39 43 45 46 44 50 54
27 33 36 36 37 38 38 41 42 45 48 50 52 53 55 58 60 59 56 55 58 58 55 49 56 55 55 58 53 47 41 41 43 42 36 40 50 48
33 36 40 40 40 40 41 43 45 48 50 53 57 60 61 61 62 62 61 59 56 59 59 50 59 54 57 61 61 51 41 38 39 35 35 47 53 50
36 36 39 41 43 43 46 47 49 51 54 56 58 59 60 62 63 64 62 62 62 60 57 54 53 53 51 57 56 47 44 38 32 28 42 45 41 47
40 41 43 43 45 46 48 52 52 53 56 58 60 61 62 65 68 66 68 68 68 67 57 54 52 48 51 47 45 49 38 38 29 32 45 42 46 56
41 42 45 47 50 52 52 52 54 55 59 63 65 66 67 69 70 69 68 69 70 70 67 58 52 49 47 47 49 42 35 31 24 41 42 41 48 48
40 44 48 50 53 54 55 55 56 59 63 66 68 70 73 74 75 72 69 69 72 70 69 60 54 54 52 46 37 38 31 29 23 47 44 44 48 46
46 50 54 55 56 57 59 62 65 65 66 70 72 74 74 76 78 77 76 73 72 70 67 57 54 53 55 52 42 26 29 22 16 37 48 46 46 46
51 55 60 61 60 62 63 66 69 68 69 72 73 72 73 75 75 75 72 71 69 66 65 57 51 49 48 46 42 33 18 19 20 45 51 44 40 37
55 58 58 61 62 65 67 69 71 73 74 75 74 74 74 74 73 70 69 68 67 65 65 60 50 43 40 36 35 29 19 35 49 51 51 47 45 46
57 59 61 64 67 69 71 73 75 74 74 74 72 70 70 71 71 71 68 69 66 64 64 59 48 41 36 34 33 27 20 28 48 47 43 42 46 52
60 65 68 70 71 74 75 76 76 77 76 75 73 72 71 72 71 70 70 69 67 65 62 56 47 39 36 31 28 22 20 34 47 52 50 46 47 42
Wind_Direction
253 253 258 260 263 262 261 268 275 282 286 288 287 291 287 293 293 298 298 291 288 286 293 289 297 302 307 311 311 312 313 314 317 319 321 323 322 323
253 256 257 262 263 260 262 265 274 276 285 288 286 295 296 295 302 300 297 294 287 290 295 287 290 300 306 310 309 308 310 312 314 317 321 321 318 316
256 254 264 264 262 262 265 270 272 273 278 284 282 288 292 296 296 297 295 291 293 295 295 293 295 299 303 308 307 302 302 303 309 312 321 321 318 316
261 262 261 267 257 261 268 268 276 275 275 278 286 286 288 292 298 301 297 289 296 294 295 297 299 301 304 305 301 294 296 298 305 313 319 321 322 319
261 251 261 263 267 266 271 277 271 274 277 285 290 293 292 299 301 303 303 304 301 301 303 302 303 305 306 303 293 286 293 297 305 312 317 319 322 321
269 271 274 275 281 277 284 278 281 288 292 295 294 297 298 302 301 302 302 305 304 309 309 309 310 309 311 313 300 295 297 301 307 312 315 318 320 320
271 271 285 303 304 297 292 291 282 292 297 296 298 303 304 301 304 310 308 309 309 312 308 310 316 317 318 318 311 302 303 305 310 312 314 315 316 317
269 288 295 310 314 312 311 311 302 296 296 296 300 299 304 308 313 314 311 313 310 320 321 321 326 324 324 325 321 314 310 309 312 314 314 315 316 316
280 295 310 323 324 320 328 333 320 320 317 306 301 305 312 314 309 309 312 313 315 321 324 323 328 324 326 326 323 319 315 313 315 316 316 316 317 316
319 316 321 326 319 330 330 319 318 317 317 317 318 314 309 308 309 310 313 316 318 318 320 317 325 325 328 328 324 321 319 317 317 318 318 318 318 317
334 324 334 327 317 321 325 325 324 323 319 313 310 308 308 309 310 313 312 311 310 313 317 316 320 322 324 325 325 324 321 318 317 317 316 316 318 314
343 342 338 331 326 328 328 320 311 306 304 305 308 310 311 312 314 314 312 309 310 312 317 313 317 320 320 324 321 319 320 318 319 318 317 317 316 307
333 321 321 324 320 319 319 317 315 315 314 314 314 315 316 315 314 315 314 310 309 308 314 313 315 316 315 316 321 319 316 317 321 321 321 318 307 300
317 315 312 315 318 320 321 321 319 319 319 317 315 315 315 315 315 315 315 314 311 308 310 308 311 311 311 311 312 317 316 318 322 321 319 309 296 288
328 328 325 323 322 323 322 321 319 319 318 317 317 316 317 316 316 316 315 315 314 313 312 309 306 306 306 306 310 312 313 316 320 319 307 300 297 276
329 328 328 327 326 324 322 321 321 320 319 317 317 317 317 316 315 316 314 314 313 313 314 312 309 305 305 302 305 308 307 312 325 310 294 292 280 256
327 327 324 323 322 321 321 321 320 320 319 318 317 317 317 316 316 316 315 314 312 312 313 314 313 309 305 302 298 302 301 303 312 293 288 283 271 262
328 325 323 323 321 321 320 320 320 319 319 318 318 317 316 316 315 316 315 313 311 312 311 313 312 310 307 305 300 297 296 296 289 276 278 274 269 263
323 321 319 318 319 319 319 319 317 319 319 318 318 317 316 315 313 313 312 311 310 310 310 311 308 305 301 297 304 288 291 288 272 272 267 268 265 259
322 319 318 319 318 319 319 318 318 320 319 318 317 317 316 315 314 314 313 312 311 310 310 309 305 303 300 297 300 297 266 271 259 264 260 266 267 262
323 321 322 321 321 320 319 319 318 317 317 316 315 315 315 315 314 314 313 312 311 309 307 306 304 305 304 304 295 293 278 274 261 256 256 258 256 249
324 323 323 322 320 319 318 317 316 316 315 315 314 315 314 313 313 312 312 311 309 308 307 307 307 304 298 290 286 284 272 272 261 260 258 258 251 245
323 322 321 320 320 319 317 316 315 313 312 312 313 312 312 310 310 309 310 309 307 306 305 305 302 299 293 284 278 268 264 261 254 249 251 254 248 251